Вернуться в каталог

SL-12 DEB

LostHEO
NORAD 43608·DEBRIS·🇷🇺 Russia

Запущен Mar 1, 2010 с Baikonur Cosmodrome

Loading…

Ближайшие Пролёты (ближайшие 24 часа)

TLE

УстаревшееSource: Space-Track

Эпоха: Mar 25, 2022, 06:06 UTC

1 43608U 10007AK  22084.25452524  .00000090  00000-0  13923-2 0  9993
2 43608  65.7229  70.0972 5566280 320.4853   9.8908  4.20182510 57342

Отслеживайте SL-12 DEB в реальном времени с AllMySat

Download on the App Store